[[{"header":{"parameterUnit":"m.s-1","parameterCategory":1,"la1":30.2991,"la2":30.254,"lo1":-89.0895,"lo2":-89.0444,"dy":0.0017,"dx":0.0017,"nx":28,"ny":28,"refTime":"2024-07-02T03:00:00:Z","depth":0,"parameterNumber":2,"parameterNumberName":"U-component_of_WINDS"},"data":[0,0,0,0,0,0,0,0,0,0,0,0,0,0,0,0,0,0,0,0,0,0,0,0,0,0,0,0,0,0,0,0,0,0,0,0,0,0,0,0,0,0,0,0,0,0,0,0,0,0,0,0,0,0,0,0,0,0,-0.1781,-0.1782,0,-0.1824,-0.1825,-0.1825,-0.1866,-0.1866,-0.1867,-0.1867,-0.1912,-0.1912,-0.1913,0,0,0,0,0,0,0,0,0,0,0,0,0,-0.1736,-0.1736,-0.1781,-0.1782,-0.1782,-0.1824,-0.1825,-0.1825,-0.1866,-0.1866,-0.1867,-0.1868,-0.1911,-0.1912,-0.1913,0,0,0,0,0,0,0,0,0,0,0,0,0,-0.1765,-0.1737,-0.1781,-0.1808,-0.181,-0.1824,-0.1825,-0.1825,-0.1866,-0.1866,-0.1867,-0.1868,-0.1911,-0.1912,-0.1913,-0.1904,0,0,-0.1916,-0.1917,0,0,0,0,0,0,0,0,-0.1763,-0.1766,-0.1803,-0.1806,-0.1809,-0.184,-0.1825,-0.1852,-0.1865,-0.1845,-0.1867,-0.1868,-0.1887,-0.189,-0.1897,-0.1906,-0.1908,-0.1917,-0.1917,-0.1918,-0.1918,0,0,0,0,0,0,0,-0.1761,-0.1765,-0.1798,-0.1804,-0.1807,-0.1818,-0.1823,-0.183,-0.1861,-0.1847,-0.185,-0.1854,-0.1889,-0.1896,-0.1898,-0.1909,-0.1916,-0.1917,-0.1918,-0.1918,-0.1914,-0.1913,0,0,0,0,0,0,-0.1755,-0.1763,-0.1797,-0.18,-0.1787,-0.1818,-0.1823,-0.183,-0.1861,-0.1867,-0.1853,-0.1856,-0.1893,-0.1897,-0.19,-0.1892,-0.1918,-0.1919,-0.1919,-0.1915,-0.1914,-0.1913,0,0,0,0,0,0,-0.1754,-0.1757,-0.1795,-0.1782,-0.1788,-0.1818,-0.1824,-0.183,-0.1837,-0.1866,-0.1872,-0.1854,-0.1894,-0.1898,-0.1903,-0.1894,-0.1919,-0.192,-0.1916,-0.1915,-0.1914,-0.1876,0,0,0,0,0,0,-0.1752,-0.1757,-0.1753,-0.1782,-0.1788,-0.1797,-0.1824,-0.183,-0.1838,-0.1842,-0.1869,-0.1874,-0.1895,-0.1901,-0.1904,-0.1896,-0.1921,-0.1917,-0.1915,-0.1914,-0.1878,-0.1873,-0.187,0,0,0,0,0,-0.175,-0.1741,-0.1753,-0.1757,-0.1784,-0.1797,-0.18,-0.1825,-0.1837,-0.1834,-0.1854,-0.1873,-0.1894,-0.1901,-0.1905,-0.1897,-0.1917,-0.1916,-0.1914,-0.188,-0.1874,-0.187,0,0,0,0,0,0,-0.1711,-0.1745,-0.1759,-0.1758,-0.1774,-0.1803,-0.18,-0.1818,-0.1831,-0.1834,-0.1864,-0.1869,-0.1871,-0.1884,-0.1891,-0.189,-0.1909,-0.1908,-0.1881,-0.1876,-0.1872,-0.1869,-0.1922,0,0,0,0,0,-0.1702,-0.1709,-0.1738,-0.1735,-0.1742,-0.177,-0.1776,-0.1793,-0.1811,-0.1818,-0.1838,-0.1855,-0.1865,-0.1872,-0.1883,-0.188,-0.1887,-0.1876,-0.1872,-0.1869,-0.1867,-0.1867,-0.1863,-0.1908,-0.1908,-0.1908,0,0,-0.1684,-0.1704,-0.1706,-0.1728,-0.1742,-0.1749,-0.1775,-0.1781,-0.1786,-0.1819,-0.1825,-0.184,-0.1861,-0.1861,-0.1863,-0.1873,-0.1857,-0.1866,-0.1863,-0.1864,-0.1865,-0.1861,-0.1857,-0.1906,-0.1907,-0.1907,0,0,-0.1655,-0.167,-0.1669,-0.1683,-0.1704,-0.1723,-0.1723,-0.1749,-0.1761,-0.1767,-0.1792,-0.1799,-0.1816,-0.183,-0.1839,-0.1816,-0.1834,-0.1819,-0.1797,-0.1797,-0.1793,-0.179,-0.1782,-0.1779,-0.1817,-0.1817,-0.1817,0,-0.163,-0.164,-0.1666,-0.1671,-0.168,-0.171,-0.1709,-0.1722,-0.1746,-0.1752,-0.1762,-0.1785,-0.1801,-0.1806,-0.18,-0.1807,-0.1808,-0.1816,-0.1791,-0.1789,-0.1786,-0.1779,-0.1776,-0.1815,-0.1815,-0.1816,-0.1816,0,-0.1609,-0.1616,-0.1612,-0.1635,-0.1644,-0.1645,-0.1672,-0.1678,-0.1695,-0.1712,-0.1718,-0.1739,-0.1755,-0.1757,-0.1774,-0.1765,-0.177,-0.1786,-0.1805,-0.178,-0.1773,-0.1771,-0.1812,-0.1813,-0.1814,-0.1814,0,0,-0.1555,-0.1593,-0.1591,-0.1602,-0.1628,-0.1634,-0.1638,-0.1653,-0.1658,-0.1674,-0.1678,-0.1692,-0.1707,-0.1717,-0.1736,-0.1735,-0.1716,-0.1751,-0.1752,-0.1744,-0.1708,-0.1696,-0.1692,-0.1728,-0.1728,-0.1728,-0.1706,0,-0.1531,-0.1539,-0.1562,-0.1563,-0.157,-0.1599,-0.1602,-0.1619,-0.1635,-0.1644,-0.1663,-0.1672,-0.1691,-0.1697,-0.1698,-0.1718,-0.1709,-0.172,-0.1733,-0.1733,-0.1727,-0.1689,-0.1677,-0.1655,-0.1704,-0.1703,-0.1703,0,-0.1503,-0.1517,-0.1518,-0.1544,-0.1548,-0.1551,-0.1567,-0.1575,-0.1595,-0.1607,-0.1619,-0.1639,-0.1645,-0.1663,-0.1671,-0.1678,-0.1685,-0.1695,-0.1695,-0.1698,-0.1716,-0.1691,-0.1649,-0.1646,-0.1699,-0.17,-0.17,0,-0.1464,-0.1483,-0.1487,-0.1495,-0.1526,-0.1527,-0.154,-0.156,-0.1568,-0.1583,-0.1589,-0.1604,-0.1612,-0.1624,-0.1648,-0.1658,-0.1654,-0.1673,-0.1665,-0.1664,-0.1662,-0.1662,-0.1622,-0.1666,-0.1666,-0.1666,-0.1666,0,-0.1434,-0.1434,-0.147,-0.1472,-0.1473,-0.1501,-0.1501,-0.1517,-0.1534,-0.1541,-0.1566,-0.1572,-0.1603,-0.1612,-0.1631,-0.1636,-0.1639,-0.1649,-0.1654,-0.1647,-0.1646,-0.1652,-0.1654,-0.1665,-0.1666,-0.1666,-0.1666,0,-0.1392,-0.1416,-0.1421,-0.145,-0.1457,-0.1457,-0.1481,-0.1485,-0.1503,-0.151,-0.1514,-0.1542,-0.1554,-0.1579,-0.1598,-0.1611,-0.1611,-0.162,-0.1604,-0.1607,-0.1597,-0.1598,-0.156,-0.1556,-0.1602,-0.1602,-0.1601,0,-0.1371,-0.1372,-0.14,-0.1406,-0.1418,-0.1427,-0.1436,-0.1463,-0.1471,-0.1493,-0.1494,-0.1508,-0.1521,-0.1538,-0.1561,-0.1576,-0.1585,-0.1571,-0.1588,-0.158,-0.1585,-0.1585,-0.1586,-0.1567,-0.1566,-0.1566,-0.1565,0,-0.1332,-0.1344,-0.1355,-0.1371,-0.138,-0.1393,-0.1408,-0.1412,-0.1442,-0.145,-0.1462,-0.1472,-0.1491,-0.1505,-0.1523,-0.1537,-0.1556,-0.156,-0.1559,-0.1551,-0.1543,-0.1548,-0.1594,-0.1561,-0.1561,-0.1562,-0.1562,-0.1562,-0.1301,-0.1303,-0.1323,-0.1335,-0.1349,-0.1362,-0.1367,-0.1386,-0.1396,-0.1414,-0.1429,-0.1441,-0.1461,-0.1487,-0.15,-0.1509,-0.1519,-0.1517,-0.1516,-0.1515,-0.1513,-0.1541,-0.1512,-0.1513,-0.1513,-0.1513,-0.1513,0,-0.1263,-0.1278,-0.1288,-0.1308,-0.1318,-0.1335,-0.1352,-0.1359,-0.1368,-0.1385,-0.1397,-0.1412,-0.1425,-0.1449,-0.1465,-0.1468,-0.1477,-0.1471,-0.1471,-0.1474,-0.1503,-0.1503,-0.1463,-0.1463,-0.1463,-0.1463,-0.1463,-0.1463,-0.1245,-0.125,-0.1264,-0.1276,-0.1291,-0.1302,-0.131,-0.1323,-0.1337,-0.1352,-0.1363,-0.1378,-0.1398,-0.1415,-0.1429,-0.1435,-0.144,-0.1431,-0.1441,-0.1467,-0.1472,-0.1476,-0.1476,-0.1432,-0.1432,-0.1411,-0.1411,-0.1411]},{"header":{"parameterUnit":"m.s-1","parameterCategory":1,"la1":30.2991,"la2":30.254,"lo1":-89.0895,"lo2":-89.0444,"dy":0.0017,"dx":0.0017,"nx":28,"ny":28,"refTime":"2024-07-02T03:00:00:Z","depth":0,"parameterNumber":3,"parameterNumberName":"V-component_of_WINDS"},"data":[0,0,0,0,0,0,0,0,0,0,0,0,0,0,0,0,0,0,0,0,0,0,0,0,0,0,0,0,0,0,0,0,0,0,0,0,0,0,0,0,0,0,0,0,0,0,0,0,0,0,0,0,0,0,0,0,0,0,4.1545,4.1546,0,4.1637,4.1638,4.1639,4.1614,4.1612,4.1611,4.1609,4.1699,4.1703,4.1707,0,0,0,0,0,0,0,0,0,0,0,0,0,4.1347,4.1351,4.1545,4.1547,4.1548,4.1636,4.1638,4.1639,4.1615,4.1612,4.161,4.1608,4.1698,4.1702,4.1707,0,0,0,0,0,0,0,0,0,0,0,0,0,4.1435,4.1352,4.1545,4.1546,4.1547,4.1636,4.1638,4.1639,4.1615,4.1612,4.161,4.1607,4.1696,4.1702,4.1708,4.18,0,0,4.1727,4.1729,0,0,0,0,0,0,0,0,4.143,4.1443,4.1545,4.1546,4.1548,4.1611,4.1601,4.1693,4.1616,4.1589,4.1609,4.1606,4.1672,4.168,4.1703,4.1805,4.1808,4.1727,4.1731,4.1734,4.1735,0,0,0,0,0,0,0,4.1424,4.1439,4.1581,4.1546,4.1548,4.1541,4.1551,4.1618,4.1644,4.1591,4.159,4.1601,4.1672,4.1697,4.1705,4.181,4.1727,4.1733,4.1736,4.1739,4.1992,4.1995,0,0,0,0,0,0,4.1418,4.1434,4.1578,4.1584,4.1481,4.1547,4.1558,4.1594,4.1644,4.1649,4.1603,4.16,4.1688,4.1698,4.1708,4.1819,4.1734,4.1739,4.1743,4.1989,4.1993,4.1996,0,0,0,0,0,0,4.1413,4.1431,4.1575,4.1509,4.1526,4.1553,4.1594,4.1597,4.1622,4.1653,4.1657,4.1624,4.1686,4.1699,4.1778,4.1822,4.1742,4.1748,4.1985,4.199,4.1994,4.2042,0,0,0,0,0,0,4.1408,4.1429,4.1465,4.151,4.153,4.1644,4.1597,4.1601,4.1633,4.1629,4.1673,4.1678,4.1685,4.1769,4.1784,4.1829,4.1752,4.1982,4.1988,4.1993,4.2037,4.2048,4.2057,0,0,0,0,0,4.1401,4.1474,4.1467,4.1485,4.1576,4.1647,4.1658,4.1665,4.1636,4.1672,4.1692,4.1677,4.1815,4.1777,4.1794,4.1841,4.1979,4.1986,4.1993,4.2032,4.2046,4.2057,0,0,0,0,0,0,4.1433,4.148,4.1473,4.1563,4.1601,4.1643,4.1688,4.1679,4.1726,4.172,4.1726,4.1736,4.1816,4.1837,4.1794,4.1933,4.1892,4.1903,4.1917,4.193,4.194,4.1933,4.1758,0,0,0,0,0,4.1451,4.1506,4.1544,4.1619,4.1639,4.1661,4.1692,4.1694,4.1733,4.1749,4.1775,4.1813,4.1865,4.1899,4.1948,4.204,4.2049,4.2081,4.2091,4.21,4.2108,4.2158,4.2173,4.2019,4.2019,4.2018,0,0,4.1488,4.152,4.1554,4.1627,4.1657,4.1712,4.1674,4.1735,4.1776,4.1758,4.1834,4.1854,4.1897,4.1983,4.2022,4.2002,4.2153,4.2108,4.2115,4.2119,4.2167,4.2181,4.2194,4.2023,4.2022,4.2022,0,0,4.1583,4.1614,4.168,4.1712,4.1758,4.1772,4.1788,4.1831,4.1844,4.1921,4.1909,4.1958,4.2047,4.2078,4.2106,4.2215,4.2202,4.2231,4.2284,4.2332,4.2344,4.2355,4.2393,4.2407,4.2239,4.224,4.224,0,4.1622,4.1707,4.1715,4.1777,4.1809,4.1798,4.1864,4.1894,4.1954,4.1976,4.1953,4.2066,4.2094,4.2187,4.2213,4.2236,4.2254,4.2225,4.2342,4.2353,4.2363,4.24,4.2414,4.2243,4.2242,4.2242,4.2242,0,4.1753,4.1812,4.186,4.1919,4.1957,4.2021,4.2038,4.2075,4.2075,4.2091,4.2169,4.2203,4.2259,4.2282,4.2281,4.2375,4.2361,4.2341,4.2299,4.2381,4.2415,4.2429,4.2247,4.2246,4.2245,4.2244,0,0,4.1869,4.1934,4.1951,4.1978,4.2029,4.2074,4.2138,4.2194,4.2226,4.2268,4.2321,4.2397,4.2379,4.241,4.2414,4.2457,4.254,4.2431,4.2432,4.2449,4.2645,4.2659,4.2676,4.2533,4.2536,4.2538,4.2641,0,4.1968,4.2082,4.2091,4.2193,4.2247,4.2237,4.2293,4.233,4.2347,4.2395,4.2413,4.2467,4.2439,4.2458,4.2501,4.2521,4.258,4.2514,4.2581,4.2584,4.257,4.2694,4.2709,4.2805,4.2655,4.2657,4.2659,0,4.2099,4.2146,4.2253,4.2297,4.232,4.237,4.2423,4.2469,4.2511,4.252,4.2556,4.2554,4.2619,4.2577,4.2666,4.2621,4.2649,4.2664,4.2668,4.2673,4.2625,4.2701,4.2835,4.285,4.268,4.2678,4.2677,0,4.2172,4.2263,4.2338,4.2362,4.2415,4.2451,4.2474,4.2514,4.2547,4.2593,4.2614,4.2667,4.2696,4.2736,4.2748,4.2716,4.2837,4.2795,4.2845,4.2845,4.287,4.2868,4.3009,4.289,4.289,4.289,4.2889,0,4.2281,4.2347,4.2372,4.2419,4.2492,4.2503,4.2575,4.2596,4.2631,4.2681,4.2676,4.2723,4.2737,4.2786,4.2795,4.2868,4.2881,4.289,4.2891,4.2889,4.2888,4.2907,4.29,4.2894,4.2893,4.2892,4.2891,0,4.2374,4.2394,4.2476,4.2521,4.2534,4.2586,4.2623,4.2668,4.2685,4.2748,4.2764,4.279,4.2848,4.2864,4.2933,4.294,4.3024,4.302,4.3011,4.301,4.3059,4.3054,4.3217,4.3238,4.3106,4.3107,4.3108,0,4.2442,4.2493,4.2543,4.2577,4.2603,4.2657,4.2691,4.2704,4.274,4.2792,4.2831,4.2888,4.2934,4.3027,4.3052,4.3105,4.3101,4.3155,4.3109,4.3106,4.3101,4.3098,4.3103,4.3163,4.3164,4.3165,4.3166,0,4.256,4.2567,4.2618,4.2673,4.2714,4.2758,4.2799,4.2827,4.2845,4.2886,4.2946,4.2982,4.3053,4.311,4.3164,4.3187,4.318,4.3181,4.3195,4.3193,4.3185,4.319,4.3033,4.3177,4.3175,4.3175,4.3174,4.3174,4.2642,4.2686,4.2729,4.2786,4.2819,4.2858,4.2902,4.2926,4.2976,4.3036,4.304,4.3105,4.3146,4.3217,4.3244,4.3294,4.3279,4.3299,4.3304,4.3309,4.3313,4.3179,4.3304,4.3304,4.3304,4.3304,4.3303,0,4.2759,4.2786,4.2838,4.2897,4.2942,4.2933,4.2978,4.3016,4.3073,4.3113,4.3159,4.3228,4.3283,4.3313,4.3368,4.3403,4.3401,4.3417,4.3414,4.3419,4.3324,4.3306,4.3418,4.3418,4.3418,4.3418,4.3418,4.3418,4.2824,4.2899,4.2913,4.3004,4.3031,4.3095,4.3122,4.3158,4.3189,4.3267,4.3313,4.3333,4.3369,4.3427,4.3477,4.3484,4.3504,4.3522,4.3528,4.3438,4.3426,4.3415,4.3398,4.3527,4.3527,4.3619,4.3619,4.362]}]]